When you browse on this site, cookies collect data to enhance your experience and personalize the content and advertising you see.
Visit our Privacy Policy to learn more. By continuing to use the site, you agree to this use of cookies and data.
  • In Belgien
  • Länderverzeichnis
  • Für 7 Tage
  • Wassertemperatur
  • Wetterkarte
  • Widgets
  • user-avatar
    Anmelden

    Stündliche Wetter Lutyancevo

    Heute, 4 Juni, Donnerstag

    Zeit Temperatur Niederschläge Wind Luftdruck Luftfeuchtigkeit
    00:00 +12°C° 0.1 mm 3 m/S 741 mmHg 94%
    01:00 +11°C° 0.1 mm 3 m/S 740 mmHg 95%
    02:00 +11°C° 0.1 mm 3 m/S 740 mmHg 95%
    03:00 +11°C° 1.8 mm 4 m/S 739 mmHg 95%
    04:00 +11°C° 1.8 mm 4 m/S 738 mmHg 96%
    05:00 +10°C° 1.8 mm 5 m/S 737 mmHg 96%
    06:00 +10°C° 2.8 mm 5 m/S 737 mmHg 97%
    07:00 +10°C° 2.8 mm 5 m/S 736 mmHg 97%
    08:00 +10°C° 2.8 mm 5 m/S 736 mmHg 97%
    09:00 +12°C° 0.6 mm 4 m/S 735 mmHg 97%
    10:00 +12°C° 0.6 mm 4 m/S 735 mmHg 96%
    11:00 +13°C° 0.6 mm 4 m/S 734 mmHg 96%
    12:00 +13°C° 0.5 mm 4 m/S 734 mmHg 96%
    13:00 +14°C° 0.5 mm 3 m/S 734 mmHg 96%
    14:00 +14°C° 0.5 mm 3 m/S 734 mmHg 96%
    15:00 +16°C° 0.2 mm 3 m/S 734 mmHg 93%
    16:00 +16°C° 0.2 mm 3 m/S 734 mmHg 91%
    17:00 +17°C° 0.2 mm 3 m/S 734 mmHg 88%
    18:00 +16°C° 0.1 mm 2 m/S 734 mmHg 91%
    19:00 +15°C° 0.1 mm 2 m/S 735 mmHg 93%
    20:00 +14°C° 0.1 mm 1 m/S 735 mmHg 96%
    21:00 +14°C° 0.4 mm 2 m/S 735 mmHg 96%
    22:00 +13°C° 0.4 mm 2 m/S 735 mmHg 96%
    23:00 +12°C° 0.4 mm 2 m/S 735 mmHg 97%

    Morgen, 5 Juni, Freitag

    Zeit Temperatur Niederschläge Wind Luftdruck Luftfeuchtigkeit
    00:00 +12°C° 0.1 mm 2 m/S 736 mmHg 97%
    01:00 +10°C° 0.1 mm 2 m/S 736 mmHg 97%
    02:00 +10°C° 0.1 mm 2 m/S 736 mmHg 97%
    03:00 +10°C° 0.3 mm 2 m/S 736 mmHg 97%
    04:00 +12°C° 0.3 mm 2 m/S 736 mmHg 97%
    05:00 +12°C° 0.3 mm 2 m/S 736 mmHg 96%
    06:00 +13°C° 0.1 mm 2 m/S 737 mmHg 92%
    07:00 +13°C° 0.1 mm 3 m/S 737 mmHg 87%
    08:00 +14°C° 0.1 mm 3 m/S 738 mmHg 83%
    09:00 +16°C° 0.4 mm 3 m/S 738 mmHg 77%
    10:00 +18°C° 0.4 mm 4 m/S 738 mmHg 72%
    11:00 +19°C° 0.4 mm 4 m/S 738 mmHg 66%
    12:00 +19°C° 0.1 mm 4 m/S 738 mmHg 61%
    13:00 +20°C° 0.1 mm 4 m/S 738 mmHg 55%
    14:00 +21°C° 0.1 mm 4 m/S 738 mmHg 50%
    15:00 +20°C° 0.1 mm 3 m/S 739 mmHg 55%
    16:00 +19°C° 0.1 mm 3 m/S 739 mmHg 61%
    17:00 +19°C° 0.1 mm 3 m/S 739 mmHg 66%
    18:00 +17°C° 0.1 mm 3 m/S 739 mmHg 74%
    19:00 +16°C° 0.1 mm 2 m/S 739 mmHg 81%
    20:00 +14°C° 0.1 mm 2 m/S 739 mmHg 88%
    21:00 +13°C° 0 mm 2 m/S 740 mmHg 91%
    22:00 +12°C° 0 mm 2 m/S 740 mmHg 94%
    23:00 +12°C° 0 mm 2 m/S 740 mmHg 97%

    übermorgen, 6 Juni, Samstag

    Zeit Temperatur Niederschläge Wind Luftdruck Luftfeuchtigkeit
    00:00 +10°C° 0 mm 2 m/S 740 mmHg 97%
    01:00 +10°C° 0 mm 2 m/S 741 mmHg 97%
    02:00 +9°C° 0 mm 2 m/S 741 mmHg 97%
    03:00 +10°C° 0 mm 2 m/S 741 mmHg 96%
    04:00 +10°C° 0 mm 2 m/S 741 mmHg 95%
    05:00 +12°C° 0 mm 2 m/S 741 mmHg 94%
    06:00 +12°C° 0 mm 3 m/S 741 mmHg 87%
    07:00 +14°C° 0 mm 3 m/S 741 mmHg 81%
    08:00 +17°C° 0 mm 3 m/S 741 mmHg 74%
    09:00 +18°C° 0 mm 4 m/S 741 mmHg 68%
    10:00 +20°C° 0 mm 4 m/S 741 mmHg 61%
    11:00 +21°C° 0 mm 4 m/S 742 mmHg 55%
    12:00 +21°C° 0 mm 4 m/S 741 mmHg 57%
    13:00 +22°C° 0 mm 4 m/S 741 mmHg 59%
    14:00 +22°C° 0 mm 4 m/S 741 mmHg 62%
    15:00 +21°C° 0.2 mm 4 m/S 741 mmHg 67%
    16:00 +21°C° 0.2 mm 4 m/S 741 mmHg 72%
    17:00 +20°C° 0.2 mm 4 m/S 741 mmHg 77%
    18:00 +19°C° 1 mm 4 m/S 741 mmHg 84%
    19:00 +18°C° 1 mm 3 m/S 741 mmHg 90%
    20:00 +17°C° 1 mm 3 m/S 741 mmHg 96%
    21:00 +17°C° 0 mm 3 m/S 741 mmHg 96%
    22:00 +16°C° 0 mm 3 m/S 741 mmHg 97%
    23:00 +16°C° 0 mm 3 m/S 742 mmHg 97%

    7 Juni, Sonntag

    Zeit Temperatur Niederschläge Wind Luftdruck Luftfeuchtigkeit
    00:00 +16°C° 0 mm 2 m/S 742 mmHg 98%
    01:00 +15°C° 0 mm 2 m/S 742 mmHg 98%
    02:00 +15°C° 0 mm 2 m/S 743 mmHg 98%
    03:00 +15°C° 0 mm 1 m/S 743 mmHg 98%
    04:00 +15°C° 0 mm 1 m/S 744 mmHg 97%
    05:00 +16°C° 0 mm 1 m/S 744 mmHg 96%
    06:00 +18°C° 0 mm 1 m/S 744 mmHg 87%
    07:00 +20°C° 0 mm 1 m/S 745 mmHg 78%
    08:00 +22°C° 0 mm 1 m/S 745 mmHg 69%
    09:00 +23°C° 0 mm 2 m/S 746 mmHg 64%
    10:00 +24°C° 0 mm 2 m/S 746 mmHg 58%
    11:00 +25°C° 0 mm 3 m/S 746 mmHg 53%
    12:00 +26°C° 0 mm 3 m/S 746 mmHg 51%
    13:00 +26°C° 0 mm 3 m/S 746 mmHg 49%
    14:00 +26°C° 0 mm 3 m/S 746 mmHg 48%
    15:00 +26°C° 0 mm 2 m/S 746 mmHg 50%
    16:00 +26°C° 0 mm 2 m/S 746 mmHg 53%
    17:00 +26°C° 0 mm 2 m/S 747 mmHg 55%
    18:00 +24°C° 0 mm 1 m/S 747 mmHg 63%
    19:00 +22°C° 0 mm 1 m/S 747 mmHg 71%
    20:00 +20°C° 0 mm 1 m/S 747 mmHg 79%
    21:00 +17°C° 0 mm 0 m/S 747 mmHg 82%
    22:00 +16°C° 0 mm 0 m/S 747 mmHg 85%
    23:00 +15°C° 0 mm 0 m/S 747 mmHg 87%

    8 Juni, Montag

    Zeit Temperatur Niederschläge Wind Luftdruck Luftfeuchtigkeit
    00:00 +16°C° 0 mm 1 m/S 747 mmHg 88%
    01:00 +15°C° 0 mm 1 m/S 747 mmHg 89%
    02:00 +15°C° 0 mm 1 m/S 747 mmHg 90%
    03:00 +16°C° 0 mm 1 m/S 747 mmHg 88%
    04:00 +18°C° 0 mm 1 m/S 747 mmHg 85%
    05:00 +18°C° 0 mm 2 m/S 747 mmHg 83%
    06:00 +19°C° 0 mm 2 m/S 747 mmHg 78%
    07:00 +21°C° 0 mm 2 m/S 747 mmHg 74%
    08:00 +22°C° 0 mm 3 m/S 747 mmHg 70%
    09:00 +25°C° 0.1 mm 3 m/S 747 mmHg 65%
    10:00 +26°C° 0.1 mm 3 m/S 747 mmHg 61%
    11:00 +28°C° 0.1 mm 3 m/S 747 mmHg 57%
    12:00 +28°C° 0.5 mm 2 m/S 747 mmHg 59%
    13:00 +27°C° 0.5 mm 2 m/S 746 mmHg 62%
    14:00 +27°C° 0.5 mm 2 m/S 746 mmHg 65%
    15:00 +27°C° 0.1 mm 2 m/S 746 mmHg 64%
    16:00 +27°C° 0.1 mm 2 m/S 746 mmHg 63%
    17:00 +27°C° 0.1 mm 1 m/S 746 mmHg 62%
    18:00 +26°C° 0.2 mm 1 m/S 746 mmHg 70%
    19:00 +24°C° 0.2 mm 1 m/S 746 mmHg 78%
    20:00 +22°C° 0.2 mm 1 m/S 746 mmHg 86%
    21:00 +21°C° 0 mm 1 m/S 746 mmHg 88%
    22:00 +20°C° 0 mm 1 m/S 747 mmHg 91%
    23:00 +18°C° 0 mm 2 m/S 747 mmHg 93%

    9 Juni, Dienstag

    Zeit Temperatur Niederschläge Wind Luftdruck Luftfeuchtigkeit
    00:00 +19°C° 0 mm 1 m/S 747 mmHg 94%
    01:00 +19°C° 0 mm 1 m/S 747 mmHg 95%
    02:00 +18°C° 0 mm 1 m/S 747 mmHg 95%
    03:00 +19°C° 0 mm 1 m/S 747 mmHg 94%
    04:00 +19°C° 0 mm 1 m/S 747 mmHg 93%
    05:00 +19°C° 0 mm 2 m/S 747 mmHg 92%
    06:00 +21°C° 0.1 mm 2 m/S 747 mmHg 87%
    07:00 +23°C° 0.1 mm 2 m/S 747 mmHg 82%
    08:00 +25°C° 0.1 mm 2 m/S 747 mmHg 76%
    09:00 +26°C° 0.4 mm 3 m/S 748 mmHg 70%
    10:00 +27°C° 0.4 mm 3 m/S 748 mmHg 63%
    11:00 +28°C° 0.4 mm 3 m/S 748 mmHg 56%
    12:00 +29°C° 0.6 mm 3 m/S 747 mmHg 58%
    13:00 +29°C° 0.6 mm 3 m/S 747 mmHg 60%
    14:00 +29°C° 0.6 mm 3 m/S 747 mmHg 62%
    15:00 +28°C° 0.7 mm 3 m/S 747 mmHg 65%
    16:00 +28°C° 0.7 mm 2 m/S 747 mmHg 69%
    17:00 +27°C° 0.7 mm 2 m/S 746 mmHg 72%
    18:00 +26°C° 0.2 mm 2 m/S 747 mmHg 78%
    19:00 +24°C° 0.2 mm 2 m/S 747 mmHg 83%
    20:00 +23°C° 0.2 mm 2 m/S 747 mmHg 88%
    21:00 +21°C° 0 mm 2 m/S 747 mmHg 90%
    22:00 +21°C° 0 mm 2 m/S 747 mmHg 92%
    23:00 +20°C° 0 mm 2 m/S 747 mmHg 93%
    Mehr zeigen